| time (UTC) | temp C | wind direction | speed KPH | gust KPH | rain 1hr cm | rain 24hr cm | rain mn cm | humidity % | barometer mb |
| 20260506174200 | 18 | 225 | 8.0 | 16.1 | 0.00 | 0.00 | 0.00 | 80 | 1007.8 |
| 20260506173200 | 18 | 225 | 11.3 | 11.3 | 0.00 | 0.00 | 0.00 | 77 | 1007.8 |
| 20260506172200 | 19 | 225 | 8.0 | 12.9 | 0.00 | 0.00 | 0.00 | 78 | 1007.8 |
| 20260506171201 | 18 | 225 | 11.3 | 12.9 | 0.00 | 0.00 | 0.00 | 78 | 1007.8 |
| 20260506170201 | 18 | 180 | 6.4 | 12.9 | 0.00 | 0.00 | 0.00 | 80 | 1007.8 |
| 20260506165201 | 18 | 180 | 8.0 | 8.0 | 0.00 | 0.00 | 0.00 | 78 | 1007.8 |
| 20260506164159 | 19 | 180 | 8.0 | 8.0 | 0.00 | 0.00 | 0.00 | 76 | 1007.8 |
| 20260506163159 | 20 | 180 | 8.0 | 8.0 | 0.00 | 0.00 | 0.00 | 75 | 1007.8 |
| 20260506162159 | 19 | 180 | 8.0 | 8.0 | 0.00 | 0.00 | 0.00 | 76 | 1007.8 |
| 20260506161201 | 19 | 180 | 8.0 | 12.9 | 0.00 | 0.00 | 0.00 | 75 | 1007.8 |
| 20260506135159 | 20 | 180 | 8.0 | 16.1 | 0.00 | 0.00 | 0.00 | 72 | 1007.8 |
| 20260506134200 | 20 | 180 | 8.0 | 14.5 | 0.00 | 0.00 | 0.00 | 69 | 1007.8 |
| 20260506133200 | 20 | 180 | 11.3 | 11.3 | 0.00 | 0.00 | 0.00 | 70 | 1008.8 |
| 20260506132200 | 19 | 225 | 17.7 | 17.7 | 0.00 | 0.00 | 0.00 | 71 | 1007.8 |
| 20260506131218 | 20 | 225 | 8.0 | 20.9 | 0.00 | 0.00 | 0.00 | 71 | 1007.8 |
| 20260506130158 | 20 | 225 | 16.1 | 16.1 | 0.00 | 0.00 | 0.00 | 71 | 1008.8 |
| 20260506125159 | 19 | 225 | 6.4 | 12.9 | 0.00 | 0.00 | 0.00 | 70 | 1008.8 |
| 20260506124159 | 20 | 180 | 11.3 | 12.9 | 0.00 | 0.00 | 0.00 | 70 | 1008.8 |
| 20260506123220 | 20 | 225 | 4.8 | 11.3 | 0.00 | 0.00 | 0.00 | 69 | 1008.8 |
| 20260506122200 | 20 | 180 | 11.3 | 14.5 | 0.00 | 0.00 | 0.00 | 70 | 1008.8 |
| 20260506101159 | 18 | 180 | 9.7 | 16.1 | 0.00 | 0.00 | 0.00 | 73 | 1008.8 |
| 20260506100158 | 18 | 90 | 4.8 | 16.1 | 0.00 | 0.00 | 0.00 | 74 | 1008.8 |
| 20260506095158 | 17 | 180 | 11.3 | 12.9 | 0.00 | 0.00 | 0.00 | 76 | 1008.8 |
| 20260506094158 | 17 | 225 | 4.8 | 17.7 | 0.00 | 0.00 | 0.00 | 77 | 1008.8 |
| 20260506093219 | 17 | 180 | 11.3 | 14.5 | 0.00 | 0.00 | 0.00 | 77 | 1008.8 |
| 20260506092158 | 17 | 180 | 12.9 | 19.3 | 0.00 | 0.00 | 0.00 | 77 | 1008.8 |
| 20260506091157 | 17 | 180 | 8.0 | 12.9 | 0.00 | 0.00 | 0.00 | 80 | 1008.8 |
| 20260506090200 | 17 | 180 | 0.0 | 0.0 | 0.00 | 0.00 | 0.00 | 81 | 1008.8 |
| 20260505212137 | 15 | 0 | 4.8 | 11.3 | 0.00 | 0.00 | 0.00 | 82 | 1007.8 |
| 20260505211117 | 15 | 0 | 6.4 | 8.0 | 0.00 | 0.00 | 0.00 | 81 | 1007.8 |
| 20260505210118 | 16 | 0 | 3.2 | 6.4 | 0.00 | 0.00 | 0.00 | 77 | 1007.8 |
| 20260505205118 | 16 | 0 | 6.4 | 8.0 | 0.00 | 0.00 | 0.00 | 75 | 1006.8 |
| 20260505204117 | 16 | 0 | 8.0 | 11.3 | 0.00 | 0.00 | 0.00 | 75 | 1006.8 |
| 20260505203116 | 16 | 0 | 0.0 | 0.0 | 0.00 | 0.00 | 0.00 | 76 | 1006.8 |